GFSFLT2_prec_cloud_003.txt.gz
Cloud_Cover
0 1 1 0 0 0 5 57 58 90 35 38 100 68 27 5 3 84 5 0 0 0 0 0 0 0 0 0 0 0 0 0
0 0 0 0 0 0 0 16 93 97 85 99 55 1 4 5 5 5 5 0 0 0 0 0 0 0 0 0 0 0 0 0
0 0 1 2 0 0 1 4 6 71 93 100 94 96 1 5 13 79 5 0 0 0 0 0 0 0 0 0 0 0 0 0
0 0 0 0 0 0 3 0 4 25 98 100 61 2 4 8 99 100 41 0 0 0 0 0 0 0 0 0 0 0 0 0
0 0 0 0 0 0 0 3 5 5 1 91 100 76 75 5 0 7 100 94 0 0 0 0 0 0 0 0 0 0 0 0
0 0 0 0 0 0 0 0 1 3 56 94 58 6 2 0 3 5 98 3 2 0 0 0 0 0 0 0 0 0 0 0
0 2 4 1 0 0 0 0 0 2 10 5 22 78 8 5 0 0 0 0 0 0 0 0 0 0 0 0 0 0 0 0
0 0 1 5 5 0 0 0 0 0 5 5 7 100 94 0 0 0 0 5 0 0 0 0 0 0 0 0 0 0 0 0
5 6 88 52 0 0 3 2 0 0 0 0 25 78 27 3 0 0 0 0 0 0 0 0 3 3 0 0 0 0 0 0
64 100 92 0 0 32 12 5 10 5 0 0 0 0 3 11 4 0 0 0 0 0 0 0 0 0 0 0 0 0 0 0
77 77 12 1 100 2 9 3 4 5 4 0 1 1 4 39 53 4 0 0 0 0 0 0 0 0 0 0 0 0 0 0
100 81 49 14 100 2 2 0 0 36 89 0 5 5 0 53 100 100 24 0 0 0 0 0 0 0 0 0 0 0 0 0
22 52 89 78 0 4 4 37 60 0 0 3 4 7 100 1 5 95 66 5 5 5 4 1 0 0 0 0 0 0 3 3
62 97 58 25 34 26 18 5 2 1 0 0 34 95 1 0 0 5 5 5 5 5 5 5 5 3 0 3 2 2 0 72
92 96 25 13 51 3 0 0 2 2 4 0 0 0 0 0 0 0 0 0 0 5 5 5 5 5 20 99 80 91 98 100
100 8 96 100 13 0 0 1 48 4 32 5 9 10 14 4 0 0 0 0 2 0 3 6 14 39 37 10 87 56 72 97
42 99 100 34 5 3 0 77 7 60 65 100 94 100 100 100 98 93 87 34 4 17 23 82 100 38 5 44 68 100 100 100
95 99 100 6 14 4 15 100 97 58 100 100 100 100 88 87 54 29 93 100 98 76 72 100 84 94 100 97 100 100 100 100
100 100 91 35 5 15 94 100 98 42 12 41 100 93 40 91 99 98 100 100 75 98 98 93 99 100 100 100 100 100 100 100

GFSFLT2_prec_cloud_006.txt.gz
Cloud_Cover
0 0 0 0 0 0 0 0 3 30 61 7 15 88 74 78 93 100 99 5 0 0 0 0 0 0 0 0 0 0 0 0
0 0 0 0 0 0 0 0 0 2 6 99 10 2 6 28 100 100 77 0 4 0 0 0 0 0 0 0 0 0 0 0
0 0 0 0 0 0 0 0 0 0 4 2 68 80 73 1 68 94 12 14 3 0 0 0 0 0 0 0 0 0 0 0
0 0 0 0 0 0 0 0 0 0 0 5 100 100 100 64 0 0 0 82 42 1 0 0 0 0 0 0 0 0 0 0
0 0 0 0 0 0 0 0 0 0 0 0 95 13 90 80 12 3 18 98 5 64 0 0 0 0 0 0 0 0 0 0
0 0 2 0 0 0 0 0 0 0 1 2 100 7 86 85 76 31 3 100 39 81 3 0 0 0 0 0 0 0 0 0
0 0 4 0 0 0 0 0 0 0 0 80 5 97 86 51 96 44 0 12 73 22 1 0 0 0 0 0 0 0 0 0
0 0 0 74 5 2 0 0 0 0 0 0 4 9 100 100 51 5 0 0 3 31 51 0 0 0 0 0 0 0 0 0
0 0 27 85 0 52 16 0 0 0 0 0 38 100 90 100 100 33 91 0 0 0 0 0 0 0 0 0 0 0 0 0
4 56 72 2 3 10 4 12 0 0 0 0 0 4 16 8 100 99 92 3 0 0 0 0 0 0 0 0 0 0 0 0
98 90 24 5 7 96 96 2 0 4 1 0 0 0 3 5 100 20 6 80 41 0 0 0 0 0 0 0 0 0 0 0
100 79 38 74 100 49 93 0 0 1 0 0 1 30 0 0 0 20 63 95 5 0 0 0 4 0 0 0 0 2 0 0
100 100 100 100 100 74 82 2 4 0 0 0 0 0 0 0 14 0 36 98 0 22 0 0 0 0 0 0 0 0 5 0
100 100 100 100 100 100 100 98 76 1 0 0 0 0 16 0 7 0 4 5 2 96 5 0 0 0 0 0 0 0 1 0
100 100 100 100 95 100 100 25 5 0 0 0 0 0 0 0 0 3 96 1 0 0 0 5 4 0 0 0 0 0 0 1
100 100 100 97 62 12 5 3 3 0 0 0 0 1 0 0 0 1 72 2 0 0 0 0 5 7 11 12 10 5 5 21
100 100 82 97 78 14 5 68 2 0 0 0 33 46 0 0 0 0 0 0 0 0 0 0 0 0 1 4 8 99 100 97
100 100 100 100 10 5 91 62 3 0 0 2 100 100 100 41 9 0 51 33 13 52 1 0 3 82 77 26 100 100 86 83
100 100 100 100 100 100 18 5 2 1 0 0 100 100 100 100 100 100 100 100 100 19 0 5 22 100 100 100 100 100 100 100

GFSFLT2_prec_cloud_009.txt.gz
Cloud_Cover
0 0 0 0 0 0 0 0 0 0 0 0 9 64 45 72 30 3 94 100 14 7 11 0 0 0 0 0 0 0 0 0
0 0 0 0 0 0 0 0 0 0 0 0 0 4 4 0 63 48 42 65 13 5 4 0 0 0 0 0 0 0 0 0
0 0 0 0 0 0 0 0 0 1 0 0 0 58 90 27 5 31 94 74 17 0 3 0 0 0 0 0 0 0 0 0
0 0 0 0 0 0 0 0 0 0 1 0 8 34 91 10 100 100 4 0 0 1 0 0 0 0 0 0 0 0 0 0
5 80 40 1 0 0 0 0 0 0 1 5 2 7 86 8 97 42 98 24 4 5 0 0 0 0 0 0 0 0 0 0
2 5 2 4 17 0 0 0 0 0 0 0 13 20 61 94 41 100 100 70 4 0 0 0 5 0 0 0 0 0 0 0
2 5 2 4 2 2 0 0 0 0 0 0 0 31 84 91 85 90 99 55 89 4 5 4 0 0 0 0 0 0 0 0
0 13 14 0 0 0 5 2 0 0 0 0 0 3 55 100 100 25 68 78 100 7 3 0 0 0 0 0 0 0 0 0
0 5 6 0 0 1 0 0 0 0 0 0 0 0 0 100 38 97 87 99 32 66 20 1 0 0 0 0 0 0 0 0
0 5 64 8 5 0 0 1 2 0 0 0 0 0 0 15 99 11 1 17 100 100 100 10 0 0 0 0 0 0 0 0
2 0 0 0 5 6 88 4 100 1 3 0 0 0 0 0 32 11 0 13 82 73 52 62 18 5 1 5 2 0 5 5
30 4 0 4 20 100 7 5 5 2 5 5 1 4 0 0 0 0 0 0 4 38 100 100 50 5 3 0 0 0 0 3
25 4 9 4 91 100 100 5 2 4 5 2 0 0 0 0 0 0 0 0 3 1 5 2 76 5 3 0 0 0 0 0
100 91 100 100 100 100 55 2 3 5 25 11 2 0 0 0 0 0 0 0 0 5 5 100 18 0 45 1 0 0 0 0
100 99 97 100 100 100 37 5 7 83 89 62 60 47 1 0 0 0 0 0 0 0 70 24 92 2 0 0 4 0 15 72
100 100 62 84 78 6 98 39 100 100 100 100 100 91 2 0 0 0 0 0 0 0 0 2 99 32 5 2 0 24 95 95
100 100 100 100 100 100 75 62 100 100 100 100 72 4 0 0 0 0 62 62 21 0 27 83 54 73 90 55 9 100 90 82
100 100 100 98 100 100 100 99 100 100 100 100 4 0 0 0 7 59 100 100 100 100 64 67 80 10 38 100 24 97 100 100
100 100 100 100 100 42 95 100 100 100 100 23 4 0 22 5 11 100 100 100 100 100 96 99 6 11 2 16 25 9 100 100

GFSFLT2_prec_cloud_015.txt.gz
Cloud_Cover
0 0 0 0 0 0 0 0 0 0 2 0 0 0 0 5 5 79 100 60 94 5 5 5 2 4 0 0 0 0 0 0
0 0 0 0 0 0 0 0 0 0 0 0 0 0 0 2 0 0 1 3 5 5 5 5 11 2 0 0 0 0 0 0
0 0 0 0 0 0 0 0 0 0 0 0 0 0 0 0 0 0 0 0 0 5 83 85 45 76 1 0 0 0 0 0
0 0 0 0 0 0 0 0 0 0 0 0 0 0 0 0 0 0 0 0 0 63 43 5 17 43 5 70 63 0 0 0
0 0 0 1 0 3 7 0 4 0 0 0 0 0 0 0 1 1 0 0 0 8 16 5 5 5 2 43 6 0 0 0
4 0 0 3 5 4 2 5 34 40 3 0 0 0 0 0 0 0 2 0 0 0 0 5 5 5 1 0 0 3 0 0
5 0 7 6 5 5 5 95 14 100 29 2 0 0 0 0 0 0 0 4 4 1 0 62 14 6 49 4 1 5 0 0
5 8 2 4 5 84 100 100 53 100 10 100 0 0 0 0 0 0 0 0 0 5 4 12 85 73 4 5 5 5 0 0
0 0 1 0 82 98 58 53 100 100 92 67 4 0 0 0 0 0 0 0 0 0 0 4 4 17 5 11 0 4 0 0
0 0 0 81 17 0 0 1 5 96 100 92 5 1 4 5 3 0 0 0 0 0 0 0 0 13 96 35 1 0 4 4
0 0 0 0 0 0 0 2 0 9 66 87 83 0 5 5 5 5 0 0 0 0 0 0 0 0 0 0 0 4 4 35
15 1 0 0 0 0 0 0 4 3 4 5 100 26 4 5 5 5 5 3 0 0 0 0 0 0 0 0 0 0 11 100
16 56 1 0 0 0 0 0 1 5 8 6 65 93 10 5 1 5 5 0 0 0 0 0 0 0 1 1 0 1 97 100
64 52 47 0 5 81 49 13 0 3 5 5 5 30 6 21 60 50 32 4 20 16 0 0 0 0 50 18 56 100 100 100
81 63 5 56 69 94 92 15 18 0 0 5 2 41 52 75 34 5 5 4 0 0 0 0 27 1 5 5 40 100 100 94
100 100 8 100 57 99 76 50 16 4 0 0 27 28 9 33 55 13 3 0 0 0 0 0 0 2 5 6 21 2 0 6
34 100 100 100 83 84 32 10 0 0 42 9 0 7 3 4 4 0 0 0 0 0 0 0 0 0 0 1 10 5 3 0
14 99 100 100 98 20 53 10 10 4 4 77 22 5 4 2 6 3 2 0 0 0 0 58 93 100 100 85 2 31 0 5
91 8 100 100 100 100 100 96 52 65 10 25 28 100 81 5 13 21 27 48 8 2 11 100 100 100 100 100 100 98 99 100

GFSFLT2_prec_cloud_021.txt.gz
Cloud_Cover
0 0 0 0 0 0 0 0 0 0 0 0 0 0 44 5 5 0 0 0 0 0 0 0 0 0 0 0 0 0 0 0
0 0 0 0 0 0 0 0 0 0 0 0 0 0 2 5 1 1 0 0 4 5 5 5 5 5 1 0 0 0 0 0
0 0 0 0 0 0 0 0 0 0 0 0 0 0 0 0 1 5 4 2 4 5 24 90 97 5 4 0 1 0 0 0
0 0 0 0 0 0 0 0 0 0 0 0 0 0 0 2 41 80 7 99 100 92 82 100 63 93 5 2 0 0 0 0
0 0 0 0 0 0 0 0 0 0 0 0 0 0 0 0 0 5 54 95 70 57 6 96 100 35 5 4 0 0 0 1
0 0 0 0 0 0 0 0 1 2 4 0 0 0 0 0 0 0 2 5 6 36 5 6 58 30 2 6 1 0 0 0
0 0 0 0 0 0 0 1 10 99 0 0 0 0 0 0 0 0 0 0 5 5 8 5 3 5 5 4 0 0 0 0
0 0 0 0 0 0 0 0 70 97 0 0 0 0 0 0 0 0 0 0 0 0 4 5 6 5 0 0 0 4 0 0
0 0 0 0 0 0 0 3 19 95 33 0 0 0 0 0 0 0 0 0 0 0 0 0 3 5 9 4 0 5 25 100
0 0 0 0 0 0 0 5 6 100 93 0 0 0 0 0 0 0 0 0 0 0 0 0 0 0 0 2 5 3 92 100
0 0 0 0 0 0 0 5 41 100 100 84 2 0 5 5 0 0 0 0 0 0 0 0 0 0 0 0 2 0 1 31
0 0 0 0 0 0 0 4 69 100 100 100 80 0 0 3 5 4 3 0 0 0 0 0 0 0 0 0 0 0 0 5
5 1 0 0 0 0 0 5 5 48 100 49 8 8 0 0 0 4 5 5 3 0 0 0 0 0 0 0 0 0 0 0
4 4 0 0 0 0 2 4 11 9 58 96 14 3 5 1 0 0 4 5 5 3 5 2 0 0 0 0 0 0 0 0
1 0 0 0 0 0 0 0 0 5 5 97 74 5 1 0 0 0 0 0 5 5 5 4 0 0 0 0 0 0 0 0
1 3 2 0 0 0 0 0 0 63 67 100 100 27 4 0 0 0 0 0 0 4 5 5 5 3 0 0 0 0 0 0
5 1 0 0 0 0 0 0 8 33 86 100 93 94 4 0 0 0 0 0 0 0 2 5 5 5 4 1 0 0 0 0
5 4 16 0 0 2 0 0 31 39 100 100 96 99 100 100 100 100 100 91 71 44 28 35 0 0 0 4 0 0 0 0
3 5 0 28 0 2 0 45 19 98 100 100 100 100 100 100 100 100 100 100 100 100 100 89 33 71 98 96 33 0 0 10

GFSFLT2_prec_cloud_024.txt.gz
Cloud_Cover
0 0 0 0 0 0 0 0 0 0 0 0 0 0 0 5 2 0 0 0 0 0 0 0 0 0 0 1 3 0 0 0
0 0 0 0 0 0 0 0 0 0 0 0 0 0 0 2 0 0 0 0 0 0 0 0 0 0 0 0 0 0 0 0
0 0 0 0 0 0 0 0 0 0 0 0 0 0 0 0 0 0 0 0 0 0 0 0 0 1 0 0 0 0 0 0
0 0 0 0 0 0 0 0 0 0 0 0 0 0 0 0 0 0 5 1 1 2 0 0 0 3 5 0 0 0 0 5
0 0 0 0 0 0 16 4 0 0 0 0 0 0 0 0 0 0 0 0 0 0 5 8 5 5 5 5 0 0 0 0
0 0 0 0 0 0 0 5 0 2 0 0 0 0 0 0 2 0 0 0 2 0 0 5 5 6 100 31 5 4 0 0
0 0 0 0 0 0 0 45 4 3 0 0 0 0 0 0 0 0 0 1 5 5 5 5 5 6 32 100 100 7 4 2
0 0 0 0 0 0 1 100 24 46 0 0 0 0 0 0 0 0 0 0 0 5 5 5 5 5 5 5 10 5 4 0
0 0 0 0 0 0 2 96 31 43 6 0 0 0 0 0 0 0 0 0 0 2 4 0 4 4 2 3 2 0 0 0
0 0 0 0 0 0 0 86 60 67 5 4 0 0 0 0 0 0 0 0 0 0 0 3 5 4 5 3 2 1 0 4
0 0 0 0 0 0 0 98 100 100 91 21 0 0 0 0 0 0 0 0 0 0 0 0 0 0 0 0 0 0 0 0
4 0 0 0 0 0 0 68 100 100 100 100 6 0 0 0 1 5 0 0 0 0 0 0 0 0 0 0 0 0 0 0
5 5 0 0 0 0 0 7 16 100 52 98 24 1 0 0 0 0 0 1 0 0 0 0 0 0 0 0 0 0 0 0
5 5 4 0 0 0 1 45 1 100 100 87 100 80 0 0 0 3 5 5 5 5 3 0 0 0 0 0 0 0 0 0
63 0 0 0 0 0 0 0 0 28 100 72 74 85 7 0 0 0 2 5 5 5 5 4 0 0 0 0 0 0 0 0
39 4 23 10 0 0 0 0 0 1 66 100 48 96 48 5 0 0 0 0 1 5 4 0 0 0 0 0 0 0 0 0
64 55 10 5 0 0 0 1 0 0 2 96 77 43 79 20 6 2 0 0 0 0 2 5 1 0 0 0 0 0 0 0
5 32 31 10 4 0 3 0 0 0 0 3 23 98 75 49 92 82 86 70 67 77 48 0 0 0 1 0 0 0 0 0
68 90 95 55 54 0 0 0 0 0 0 34 100 100 100 100 100 100 100 100 99 84 85 66 94 100 100 26 0 0 0 0

GFSFLT2_prec_cloud_027.txt.gz
Cloud_Cover
0 0 0 0 0 0 0 0 0 0 0 0 0 0 1 4 5 38 8 0 0 0 0 0 0 0 0 0 0 5 0 0
0 0 0 0 0 0 0 0 0 0 0 0 0 0 0 0 0 0 5 1 0 0 0 0 0 0 0 0 5 5 0 0
0 0 0 0 0 0 0 0 0 0 0 0 0 0 0 0 0 0 0 0 0 0 0 0 0 0 0 0 0 1 0 0
0 0 0 0 0 0 0 0 0 0 0 0 0 0 0 0 0 0 0 0 0 0 0 0 0 0 0 0 0 0 0 0
1 0 0 0 0 0 0 0 0 0 0 0 0 0 0 0 0 0 0 0 0 0 0 0 0 0 0 0 0 0 0 0
0 1 0 0 0 0 0 0 0 0 0 0 0 0 0 0 0 0 0 2 2 2 0 0 0 0 0 0 2 5 0 0
0 100 20 0 0 0 0 0 3 5 0 0 0 0 0 0 0 0 0 0 0 0 0 0 0 0 3 0 3 0 0 0
0 76 14 0 0 0 0 0 5 5 4 0 0 0 0 0 0 0 0 0 0 0 0 0 0 0 5 2 5 72 44 4
10 7 61 0 0 0 0 0 13 15 25 0 0 0 0 0 0 0 0 0 0 0 1 0 0 0 0 0 2 5 5 64
79 27 61 0 0 0 0 0 2 40 100 15 0 0 0 0 0 0 0 0 0 0 1 5 4 0 4 5 2 5 5 4
50 48 17 0 0 6 0 0 0 6 80 87 2 0 0 0 0 0 0 0 0 0 0 1 4 0 0 0 2 5 5 5
86 98 100 96 93 1 2 0 0 5 93 100 5 0 0 0 0 0 0 0 0 0 0 0 3 2 0 0 0 4 5 5
98 100 99 100 87 56 8 36 34 2 4 100 80 0 0 0 0 0 0 0 0 0 0 0 0 0 0 0 0 0 0 0
95 100 90 100 100 100 66 7 12 47 90 100 100 55 0 0 0 0 0 0 0 0 0 0 0 0 0 0 0 0 0 0
100 98 96 100 92 81 33 82 100 94 47 100 100 100 4 0 0 0 0 0 0 0 0 0 0 0 0 0 0 0 0 0
100 51 94 5 50 4 4 5 2 0 6 96 100 100 100 2 0 0 0 5 3 0 0 0 0 0 0 0 0 0 0 0
5 86 18 5 5 5 0 0 0 0 3 77 100 100 100 100 31 2 0 0 2 5 3 1 0 1 6 6 14 0 0 0
97 80 19 2 0 0 0 0 0 0 1 78 100 100 100 100 100 75 36 67 51 39 34 33 36 57 64 10 0 7 12 2
62 16 100 100 96 39 1 5 0 0 0 5 49 100 100 100 100 100 58 94 91 84 100 67 96 57 27 16 7 0 0 0

GFSFLT2_prec_cloud_030.txt.gz
Cloud_Cover
0 0 0 0 0 0 0 0 0 0 0 0 0 0 75 99 100 97 5 97 2 0 0 0 0 0 0 0 0 0 4 4
0 0 0 0 0 0 0 0 0 0 0 0 0 0 2 2 66 82 5 5 5 0 0 0 0 0 0 0 0 0 5 2
0 0 0 0 0 0 0 0 0 1 0 0 0 0 0 0 0 5 8 22 5 0 0 0 0 0 0 0 0 0 0 0
32 0 0 0 0 0 0 0 0 6 93 3 0 0 0 0 0 2 23 97 6 0 0 0 0 0 0 0 0 0 1 5
5 91 4 0 0 0 0 0 0 0 0 0 0 0 0 0 1 3 5 44 31 2 0 0 0 0 0 0 0 0 0 0
0 0 8 0 0 0 0 0 0 0 0 0 0 0 0 0 0 0 0 8 5 3 0 0 0 0 0 0 0 0 0 0
5 4 100 0 0 0 0 0 0 0 0 0 0 0 0 0 0 2 0 7 79 32 11 4 0 0 0 0 0 0 0 0
78 18 100 100 4 0 0 0 0 0 25 0 0 0 0 0 0 0 0 0 5 5 14 5 1 0 0 0 0 0 0 0
3 13 66 85 91 37 0 0 0 0 25 10 0 0 0 0 0 0 0 0 0 0 0 0 0 0 0 0 0 0 0 0
5 100 100 38 100 76 29 0 0 0 39 100 80 3 0 0 0 0 0 0 0 0 0 0 0 0 0 0 0 0 0 0
16 100 47 98 10 41 31 47 41 9 27 88 8 5 0 0 0 0 0 0 0 0 0 0 0 0 0 0 0 0 0 4
5 99 100 99 92 100 100 96 100 100 70 3 1 1 0 0 0 0 0 0 0 0 0 0 1 6 5 0 0 0 5 64
74 10 100 99 100 100 100 100 5 5 70 4 0 2 70 0 0 0 0 0 0 0 0 0 0 0 10 20 5 1 0 0
100 67 100 100 100 100 100 7 5 2 0 0 0 0 1 0 0 0 0 0 0 0 0 0 0 0 0 1 5 5 5 5
100 100 100 100 100 100 15 69 48 0 0 0 0 0 7 76 0 0 0 0 0 0 0 0 0 0 0 0 0 0 0 0
100 74 100 100 100 98 88 5 38 5 0 0 2 2 51 70 4 57 99 7 0 0 0 0 0 0 0 0 0 0 0 0
89 12 96 100 32 6 5 5 92 46 43 0 0 5 5 40 22 81 82 0 1 2 22 5 0 0 0 0 0 0 0 0
54 62 17 51 38 5 0 5 5 96 69 5 2 5 15 93 73 13 8 4 12 0 73 20 2 59 11 0 0 0 0 0
5 0 0 0 4 4 0 0 4 5 25 0 0 0 10 99 100 100 91 33 8 44 2 67 0 13 31 21 0 0 0 1

GFSFLT2_prec_cloud_036.txt.gz
Cloud_Cover
0 0 0 0 0 0 0 0 0 0 0 0 0 0 0 3 5 5 0 0 38 3 100 14 79 0 0 0 0 0 0 0
0 8 0 0 0 0 0 0 0 0 0 0 0 0 0 0 0 0 3 4 5 3 91 66 17 0 0 0 0 0 0 0
55 13 0 0 0 0 0 0 0 0 0 0 0 0 0 0 0 0 0 5 4 0 4 2 0 0 0 0 0 0 0 0
2 0 10 2 0 0 0 0 0 0 0 0 0 0 0 0 0 0 0 1 2 0 4 0 0 0 0 0 0 0 0 0
0 6 97 43 0 0 0 0 0 0 0 0 0 0 0 0 0 0 2 0 0 3 5 0 0 0 0 0 0 0 0 0
0 0 2 4 1 0 0 0 0 0 0 0 0 0 0 0 0 0 0 0 0 5 5 5 5 3 0 0 0 0 0 0
0 0 1 0 5 0 0 0 0 0 0 0 0 0 0 0 0 0 0 0 0 1 1 3 5 5 0 0 0 0 0 0
0 1 2 0 0 0 0 0 5 0 2 0 0 0 4 0 0 0 0 0 5 1 0 1 2 3 0 0 0 0 0 0
2 32 17 5 23 3 2 5 98 89 58 4 0 4 30 2 0 0 0 0 0 0 0 0 5 5 0 0 0 0 0 0
100 100 100 90 100 32 5 54 5 4 83 100 69 96 91 4 0 0 0 0 0 0 0 3 5 5 5 5 0 0 0 1
100 100 99 100 100 34 5 5 4 0 22 6 53 0 3 0 0 0 0 0 0 0 0 0 0 8 12 2 0 0 1 2
86 100 100 100 100 95 5 6 93 5 3 63 5 4 0 0 0 0 0 0 0 0 0 0 0 6 8 5 5 5 0 0
92 100 92 100 84 68 100 63 100 57 2 3 4 20 26 0 0 0 0 0 0 0 0 0 0 0 1 4 28 36 3 0
81 98 100 100 100 87 100 100 100 98 81 52 4 2 4 5 0 1 0 0 0 0 0 0 0 0 0 0 87 73 32 21
97 100 100 100 100 100 100 100 100 100 100 85 0 0 5 4 0 5 3 0 0 0 0 0 0 0 0 0 0 2 9 6
42 99 81 100 100 100 100 100 100 100 100 80 1 0 2 6 4 0 10 4 0 0 3 13 0 0 0 0 0 0 0 3
37 62 82 100 99 100 100 100 94 100 91 44 22 0 0 3 5 5 0 0 0 0 1 0 0 0 0 0 0 0 0 0
100 47 79 100 100 100 100 100 98 60 2 30 0 0 0 5 65 8 5 0 0 2 0 0 0 0 0 0 0 0 0 0
100 100 100 100 100 100 100 100 99 80 61 82 94 10 0 1 96 34 95 2 4 0 0 0 0 0 0 0 0 0 0 0

GFSFLT2_prec_cloud_042.txt.gz
Cloud_Cover
0 0 0 0 0 0 0 0 0 0 0 0 0 0 0 5 4 0 0 5 5 29 3 0 0 5 4 2 25 0 0 0
0 0 0 0 0 0 0 0 0 0 0 0 0 0 0 2 3 0 0 0 6 25 19 0 0 4 4 3 5 4 0 0
0 0 0 0 4 0 0 0 0 0 0 0 0 0 0 0 0 0 0 0 5 5 79 10 1 0 71 92 23 4 5 0
5 0 0 0 0 0 0 0 0 0 0 0 0 0 0 0 0 2 0 0 5 5 89 95 1 0 0 0 2 2 2 5
4 0 1 1 0 0 0 7 0 0 0 0 0 0 0 0 0 0 0 8 3 69 5 5 43 0 0 0 2 0 5 5
19 2 4 0 41 70 73 77 5 0 19 0 0 0 0 0 0 0 0 28 8 61 56 0 3 24 0 0 0 0 1 0
64 31 5 5 12 92 70 38 22 0 85 0 0 0 0 0 0 0 0 0 5 5 65 86 4 4 4 2 0 0 0 0
85 5 5 1 0 70 24 5 5 0 4 0 0 0 0 0 0 0 0 0 0 4 6 70 1 5 5 0 0 0 0 0
14 39 79 61 5 50 18 5 5 2 6 0 0 3 65 80 100 42 0 0 0 3 55 5 3 4 4 0 0 0 0 0
86 94 100 14 5 5 5 5 5 2 1 0 0 3 26 85 100 98 27 0 0 5 5 20 90 3 1 5 0 0 0 0
100 100 98 100 100 95 82 57 50 82 13 5 0 0 0 100 100 100 99 0 1 2 4 5 1 5 0 5 3 0 0 0
100 100 100 56 86 76 17 92 100 100 96 16 0 6 94 100 100 100 96 6 0 5 0 5 70 5 5 5 3 0 0 0
100 100 100 94 100 20 97 43 100 100 100 81 46 96 100 100 100 100 100 53 0 2 58 95 82 100 5 89 3 1 2 0
100 100 100 84 21 92 95 100 100 100 100 100 100 100 100 100 100 100 100 97 98 100 38 27 56 68 93 80 5 5 5 5
100 100 100 100 64 28 92 100 100 100 100 100 100 100 100 100 100 100 99 100 98 40 18 1 3 5 35 6 71 100 97 96
100 100 100 100 100 100 100 100 100 100 100 100 100 100 100 100 100 100 100 100 60 73 36 21 27 100 78 11 4 40 77 99
100 100 100 100 100 100 100 100 100 100 100 100 100 100 100 89 59 92 100 100 48 75 60 27 30 100 100 96 76 92 100 100
100 100 100 100 100 100 100 100 100 100 100 100 100 100 100 89 6 92 100 100 75 94 73 26 5 23 18 45 51 13 35 5
100 100 99 94 100 100 100 100 100 100 100 100 100 55 100 100 28 33 100 100 100 99 62 18 5 5 5 5 2 0 0 0

GFSFLT2_prec_cloud_045.txt.gz
Cloud_Cover
0 0 0 0 0 0 0 0 0 0 0 0 0 0 0 0 42 27 57 5 3 3 5 5 0 0 0 0 5 5 9 0
0 0 0 0 0 0 0 0 0 0 0 0 0 0 0 0 5 68 100 15 5 4 5 12 1 0 0 0 0 2 9 32
0 0 0 0 0 0 0 0 0 0 0 0 0 0 0 0 2 15 8 22 5 5 4 4 0 0 0 0 0 5 0 5
0 0 0 0 0 0 8 2 0 0 0 0 0 0 0 0 6 13 68 17 5 5 5 3 0 0 0 0 0 5 2 3
0 0 0 0 0 0 0 0 3 0 0 0 0 0 0 0 55 13 68 79 49 33 7 5 5 0 0 0 0 0 8 11
0 0 13 12 0 0 0 29 25 35 0 0 0 4 0 0 3 2 4 8 12 94 32 41 5 5 0 0 0 0 0 0
5 1 7 5 5 0 0 1 48 9 38 0 0 0 0 0 0 0 0 5 4 9 10 16 17 3 4 0 0 0 0 0
4 0 1 5 5 0 2 0 0 5 56 0 0 0 0 0 0 0 0 5 5 5 5 5 5 5 4 3 0 0 0 0
1 32 97 64 5 0 0 0 0 2 1 0 0 0 1 0 0 0 0 0 3 3 5 6 5 1 3 3 1 0 0 0
14 100 100 5 38 0 92 21 0 2 0 0 0 4 40 67 66 19 0 0 0 0 5 98 3 9 17 26 0 0 0 0
100 100 91 11 98 59 73 0 5 0 0 0 24 53 30 98 100 100 100 89 0 0 1 12 67 75 53 5 0 0 0 0
100 100 100 100 100 15 32 36 21 17 33 1 0 0 38 100 100 100 100 95 0 0 0 0 10 33 97 35 0 0 0 0
100 100 100 100 100 51 60 48 100 100 100 100 75 84 100 100 100 100 100 96 0 0 0 0 1 91 99 5 1 2 0 0
100 100 100 100 100 98 64 98 100 100 100 100 100 100 100 100 100 100 100 99 9 0 0 0 16 100 90 7 81 4 0 0
100 100 100 100 100 88 100 100 100 100 100 100 100 100 100 100 100 100 100 100 99 34 5 0 65 76 5 11 9 4 0 0
100 100 100 100 100 100 100 100 100 100 100 100 100 100 100 100 100 100 100 100 100 89 81 68 99 99 85 16 96 5 0 2
100 100 100 100 100 100 100 100 100 100 100 100 100 100 100 100 100 100 100 100 100 100 98 100 79 47 69 100 64 43 96 64
100 100 100 100 100 100 100 100 100 100 100 100 100 100 100 100 100 100 100 100 100 100 97 93 66 84 33 71 2 45 60 19
100 100 100 100 100 100 100 100 100 100 97 100 100 100 100 93 94 48 54 44 82 86 94 77 47 9 91 87 97 32 5 100

GFSFLT2_prec_cloud_048.txt.gz
Cloud_Cover
0 0 0 0 0 0 2 5 0 0 0 0 0 0 0 5 5 1 0 5 5 2 0 0 0 0 0 0 2 4 0 0
0 0 0 0 0 21 1 20 0 0 0 0 0 0 0 4 18 4 0 60 5 5 0 0 0 0 0 0 0 2 0 0
0 0 0 0 0 28 52 1 0 2 0 0 0 0 0 0 0 0 0 5 18 7 5 3 0 0 0 0 0 0 0 0
0 0 0 0 0 0 7 6 0 17 45 3 0 0 0 0 0 0 3 46 60 5 49 4 0 0 0 0 0 0 0 0
0 0 0 0 0 0 1 18 77 43 4 0 3 0 0 0 0 0 4 94 48 6 5 5 0 4 1 0 0 0 0 4
0 0 6 0 0 0 5 4 0 32 100 81 1 0 0 0 0 0 4 9 5 5 5 5 2 0 0 0 0 0 0 4
1 0 0 0 0 0 4 5 1 3 98 28 43 0 0 0 0 0 0 45 5 5 5 5 35 3 3 0 0 0 0 0
33 5 1 0 0 0 0 5 0 0 0 9 37 0 0 0 0 0 0 63 5 5 5 5 5 5 32 0 0 0 0 0
11 8 0 1 0 0 0 0 0 0 0 0 0 5 0 0 0 0 0 4 5 5 5 5 33 62 5 5 0 0 0 0
5 37 97 0 0 0 0 0 0 0 0 5 5 0 0 0 0 0 0 0 2 4 5 5 5 12 19 5 5 0 4 0
100 7 2 0 0 1 0 0 0 0 0 0 0 0 0 2 4 4 0 0 0 0 0 2 3 10 53 5 0 4 0 0
100 95 65 11 38 74 82 25 18 5 1 0 0 0 43 0 1 1 21 18 4 0 0 0 0 13 78 5 24 5 4 0
57 96 74 100 100 100 100 26 30 12 32 16 5 3 60 63 46 52 42 58 8 0 0 0 4 4 5 8 8 67 5 0
100 100 100 100 100 100 100 86 95 100 100 78 45 49 86 100 100 94 98 80 0 0 0 0 2 4 5 34 100 49 7 0
100 100 100 100 100 100 100 100 100 100 86 94 100 100 93 100 100 100 100 100 49 0 0 0 0 3 5 73 53 100 62 0
100 100 100 100 100 100 100 100 100 100 100 99 100 97 100 100 100 100 100 100 100 100 91 78 43 9 4 8 50 93 94 2
100 100 100 100 100 100 100 100 100 100 100 100 100 100 100 100 100 100 100 100 100 100 100 100 100 100 100 86 16 87 27 11
100 100 100 100 100 100 100 100 100 100 100 100 100 81 100 100 100 100 100 100 100 100 100 100 100 100 100 100 92 12 12 5
100 100 100 100 100 100 100 100 100 100 100 100 100 100 100 100 100 100 100 100 100 100 100 100 100 100 100 100 82 100 100 99